Find Kosmos-2317

NORAD ID: 23621 Int'l Des: 1995-037 Owner: VKS/IACG Country: RU Constellation: GLONASS operational
MEOCIRCULAR

リアルタイム位置

3D地球を読み込み中...

Kosmos-2317について

説明を読み込み中...

次回通過

Passes for default location (London). Set your location on the main map for personalized predictions.

高度履歴

Loading altitude history...

軌道要素

1 23621U 95037B 26128.30878303 .00000017 00000-0 00000+0 0 9996
2 23621 65.4764 204.2444 0009259 170.6184 14.0266 2.13101783239403
Epoch: May 8, 2026 • Age: 51 hours

現在のステータス

高度 19152.4 km
速度 3.95 km/s
衛星直下点 7.11°N, 173.69°W
打ち上げ日 Jul 24, 1995
運用期間 30.7 years
タイプ other

技術仕様

分類 Payload
質量 1300.00 kg
乾燥質量 1200.00 kg
総質量 1300.00 kg
長さ 4.00 m
直径 1.50 m
スパン 7.80 m
形状 Cyl + Ant + 2 Pan
製造者 POL
バスタイプ Uragan
フェーズステータス In Orbit
所有者/国 VKS/IACG/RU

Most Searched